| time (UTC) | temp F | wind direction | speed knots | gust knots | rain 1hr in | rain 24hr in | rain mn in | humidity % | barometer mb |
| 20260505125004 | 64 | 78 | 0.9 | 5.2 | 0.00 | 0.00 | 0.00 | 76 | 1017.9 |
| 20260505124507 | 64 | 296 | 1.7 | 5.2 | 0.00 | 0.00 | 0.00 | 77 | 1017.9 |
| 20260505124005 | 64 | 295 | 0.9 | 2.6 | 0.00 | 0.00 | 0.00 | 77 | 1017.9 |
| 20260505123505 | 63 | 228 | 0.0 | 1.7 | 0.00 | 0.00 | 0.00 | 79 | 1017.9 |
| 20260505123007 | 62 | 288 | 0.0 | 1.7 | 0.00 | 0.00 | 0.00 | 80 | 1017.8 |
| 20260505122503 | 62 | 224 | 0.0 | 1.7 | 0.00 | 0.00 | 0.00 | 82 | 1017.9 |
| 20260505122006 | 60 | 255 | 0.0 | 2.6 | 0.00 | 0.00 | 0.00 | 84 | 1017.9 |
| 20260505121508 | 60 | 205 | 0.0 | 2.6 | 0.00 | 0.00 | 0.00 | 85 | 1017.9 |
| 20260505121004 | 58 | 239 | 0.0 | 1.7 | 0.00 | 0.00 | 0.00 | 88 | 1017.9 |
| 20260505120504 | 57 | 239 | 0.0 | 1.7 | 0.00 | 0.00 | 0.00 | 90 | 1017.9 |
| 20260505120008 | 56 | 239 | 0.0 | 1.7 | 0.00 | 0.00 | 0.00 | 90 | 1017.7 |
| 20260505115506 | 56 | 239 | 0.0 | 1.7 | 0.00 | 0.00 | 0.00 | 91 | 1017.7 |
| 20260505115004 | 56 | 242 | 0.0 | 0.9 | 0.00 | 0.00 | 0.00 | 92 | 1017.8 |
| 20260505114511 | 55 | 242 | 0.0 | 0.9 | 0.00 | 0.00 | 0.00 | 92 | 1017.7 |
| 20260505114004 | 54 | 242 | 0.0 | 0.9 | 0.00 | 0.00 | 0.00 | 94 | 1017.7 |
| 20260505113504 | 54 | 242 | 0.0 | 0.9 | 0.00 | 0.00 | 0.00 | 94 | 1017.6 |
| 20260505113008 | 53 | 242 | 0.0 | 0.9 | 0.00 | 0.00 | 0.00 | 95 | 1017.7 |
| 20260505112503 | 53 | 242 | 0.0 | 0.0 | 0.00 | 0.00 | 0.00 | 95 | 1017.7 |
| 20260505112009 | 52 | 242 | 0.0 | 0.9 | 0.00 | 0.00 | 0.00 | 95 | 1017.6 |
| 20260505111511 | 52 | 242 | 0.0 | 0.9 | 0.00 | 0.00 | 0.00 | 95 | 1017.5 |
| 20260505111009 | 52 | 242 | 0.0 | 0.0 | 0.00 | 0.00 | 0.00 | 94 | 1017.6 |
| 20260505110508 | 52 | 242 | 0.0 | 0.0 | 0.00 | 0.00 | 0.00 | 94 | 1017.5 |
| 20260505102011 | 51 | 241 | 0.0 | 0.0 | 0.00 | 0.00 | 0.00 | 94 | 1017.0 |
| 20260505101519 | 51 | 241 | 0.0 | 0.0 | 0.00 | 0.00 | 0.00 | 94 | 1017.0 |
| 20260505101008 | 51 | 241 | 0.0 | 0.0 | 0.00 | 0.00 | 0.00 | 94 | 1016.9 |
| 20260505100511 | 51 | 241 | 0.0 | 0.0 | 0.00 | 0.00 | 0.00 | 94 | 1016.9 |
| 20260505100013 | 51 | 241 | 0.0 | 0.9 | 0.00 | 0.00 | 0.00 | 94 | 1016.9 |
| 20260505095506 | 51 | 241 | 0.0 | 0.9 | 0.00 | 0.00 | 0.00 | 93 | 1017.0 |
| 20260505095009 | 51 | 241 | 0.0 | 0.9 | 0.00 | 0.00 | 0.00 | 93 | 1016.9 |
| 20260505094524 | 51 | 241 | 0.0 | 0.9 | 0.00 | 0.00 | 0.00 | 94 | 1016.9 |
| 20260505094005 | 51 | 241 | 0.0 | 0.0 | 0.00 | 0.00 | 0.00 | 93 | 1016.9 |
| 20260505093505 | 51 | 241 | 0.0 | 0.0 | 0.00 | 0.00 | 0.00 | 93 | 1017.0 |
| 20260505093016 | 51 | 241 | 0.0 | 0.0 | 0.00 | 0.00 | 0.00 | 93 | 1017.0 |
| 20260505092506 | 51 | 241 | 0.0 | 0.0 | 0.00 | 0.00 | 0.00 | 93 | 1017.0 |
| 20260505092007 | 51 | 241 | 0.0 | 0.0 | 0.00 | 0.00 | 0.00 | 92 | 1017.0 |
| 20260505091512 | 51 | 241 | 0.0 | 0.0 | 0.00 | 0.00 | 0.00 | 92 | 1016.9 |
| 20260505091009 | 51 | 241 | 0.0 | 0.0 | 0.00 | 0.00 | 0.00 | 92 | 1016.7 |
| 20260505090507 | 51 | 241 | 0.0 | 0.0 | 0.00 | 0.00 | 0.00 | 92 | 1016.7 |
| 20260505090017 | 51 | 241 | 0.0 | 0.0 | 0.00 | 0.00 | 0.00 | 92 | 1016.6 |
| 20260505085508 | 51 | 241 | 0.0 | 0.0 | 0.00 | 0.00 | 0.00 | 91 | 1016.6 |
| 20260505085011 | 51 | 241 | 0.0 | 0.0 | 0.00 | 0.00 | 0.00 | 91 | 1016.6 |
| 20260505084522 | 51 | 241 | 0.0 | 0.0 | 0.00 | 0.00 | 0.00 | 91 | 1016.6 |
| 20260505084007 | 52 | 241 | 0.0 | 0.0 | 0.00 | 0.00 | 0.00 | 91 | 1016.6 |
| 20260505083507 | 52 | 241 | 0.0 | 0.0 | 0.00 | 0.00 | 0.00 | 91 | 1016.6 |
| 20260505083019 | 52 | 241 | 0.0 | 0.0 | 0.00 | 0.00 | 0.00 | 90 | 1016.5 |
| 20260505082508 | 52 | 241 | 0.0 | 0.0 | 0.00 | 0.00 | 0.00 | 90 | 1016.5 |
| 20260505082008 | 52 | 241 | 0.0 | 0.0 | 0.00 | 0.00 | 0.00 | 90 | 1016.5 |
| 20260505081517 | 52 | 241 | 0.0 | 0.0 | 0.00 | 0.00 | 0.00 | 90 | 1016.5 |
| 20260505081005 | 52 | 241 | 0.0 | 0.0 | 0.00 | 0.00 | 0.00 | 90 | 1016.4 |
| 20260505080509 | 52 | 241 | 0.0 | 0.0 | 0.00 | 0.00 | 0.00 | 90 | 1016.4 |
| 20260505080014 | 51 | 241 | 0.0 | 0.0 | 0.00 | 0.00 | 0.00 | 90 | 1016.4 |
| 20260505075507 | 52 | 241 | 0.0 | 0.0 | 0.00 | 0.00 | 0.00 | 89 | 1016.3 |
| 20260505075010 | 52 | 241 | 0.0 | 0.0 | 0.00 | 0.00 | 0.00 | 89 | 1016.3 |
| 20260505074520 | 52 | 241 | 0.0 | 0.9 | 0.00 | 0.00 | 0.00 | 88 | 1016.3 |
| 20260505074008 | 52 | 241 | 0.0 | 0.9 | 0.00 | 0.00 | 0.00 | 88 | 1016.3 |
| 20260505073509 | 52 | 241 | 0.0 | 0.0 | 0.00 | 0.00 | 0.00 | 88 | 1016.4 |
| 20260505073029 | 52 | 241 | 0.0 | 0.0 | 0.00 | 0.00 | 0.00 | 88 | 1016.4 |
| 20260505072507 | 53 | 241 | 0.0 | 0.0 | 0.00 | 0.00 | 0.00 | 88 | 1016.3 |
| 20260505072007 | 53 | 241 | 0.0 | 0.0 | 0.00 | 0.00 | 0.00 | 87 | 1016.3 |
| 20260505071518 | 53 | 240 | 0.0 | 0.0 | 0.00 | 0.00 | 0.00 | 87 | 1016.3 |
| 20260505071010 | 53 | 241 | 0.0 | 0.0 | 0.00 | 0.00 | 0.00 | 87 | 1016.3 |
| 20260505070508 | 53 | 241 | 0.0 | 0.0 | 0.00 | 0.00 | 0.00 | 85 | 1016.3 |
| 20260505070035 | 54 | 240 | 0.0 | 0.9 | 0.00 | 0.00 | 0.00 | 85 | 1016.3 |
| 20260505065508 | 54 | 240 | 0.0 | 0.9 | 0.00 | 0.00 | 0.00 | 85 | 1016.3 |
| 20260505065008 | 54 | 240 | 0.0 | 0.9 | 0.00 | 0.00 | 0.00 | 85 | 1016.3 |
| 20260505064521 | 54 | 240 | 0.0 | 0.0 | 0.00 | 0.00 | 0.00 | 84 | 1016.3 |
| 20260505064007 | 54 | 240 | 0.0 | 0.0 | 0.00 | 0.00 | 0.00 | 84 | 1016.4 |
| 20260505063508 | 54 | 240 | 0.0 | 0.0 | 0.00 | 0.00 | 0.00 | 83 | 1016.4 |
| 20260505063022 | 54 | 240 | 0.0 | 0.0 | 0.00 | 0.00 | 0.00 | 83 | 1016.6 |
| 20260505062511 | 54 | 240 | 0.0 | 0.0 | 0.00 | 0.00 | 0.00 | 82 | 1016.6 |
| 20260505062010 | 55 | 240 | 0.0 | 0.0 | 0.00 | 0.00 | 0.00 | 82 | 1016.6 |
| 20260505061524 | 55 | 240 | 0.0 | 0.0 | 0.00 | 0.00 | 0.00 | 81 | 1016.6 |
| 20260505061008 | 55 | 240 | 0.0 | 0.0 | 0.00 | 0.00 | 0.00 | 81 | 1016.7 |
| 20260505060510 | 55 | 240 | 0.0 | 0.0 | 0.00 | 0.00 | 0.00 | 81 | 1016.7 |
| 20260505060022 | 55 | 240 | 0.0 | 1.7 | 0.00 | 0.00 | 0.00 | 81 | 1016.8 |
| 20260505055510 | 55 | 240 | 0.0 | 1.7 | 0.00 | 0.00 | 0.00 | 81 | 1016.8 |
| 20260505055010 | 55 | 296 | 0.0 | 0.9 | 0.00 | 0.00 | 0.00 | 81 | 1016.8 |
| 20260505054530 | 55 | 296 | 0.0 | 0.0 | 0.00 | 0.00 | 0.00 | 81 | 1016.8 |
| 20260505054014 | 55 | 296 | 0.0 | 0.0 | 0.00 | 0.00 | 0.00 | 80 | 1016.8 |
| 20260505053514 | 55 | 296 | 0.0 | 0.9 | 0.00 | 0.00 | 0.00 | 80 | 1016.8 |
| 20260505053015 | 55 | 296 | 0.0 | 0.9 | 0.00 | 0.00 | 0.00 | 80 | 1016.8 |
| 20260505052507 | 55 | 296 | 0.0 | 0.9 | 0.00 | 0.00 | 0.00 | 80 | 1016.9 |
| 20260505052007 | 55 | 286 | 0.0 | 0.9 | 0.00 | 0.00 | 0.00 | 80 | 1017.0 |
| 20260505051520 | 55 | 266 | 0.0 | 0.9 | 0.00 | 0.00 | 0.00 | 80 | 1017.0 |
| 20260505051006 | 55 | 266 | 0.0 | 0.0 | 0.00 | 0.00 | 0.00 | 80 | 1017.1 |
| 20260505050507 | 56 | 266 | 0.0 | 0.0 | 0.00 | 0.00 | 0.00 | 80 | 1017.1 |
| 20260505041530 | 58 | 242 | 0.0 | 0.9 | 0.00 | 0.00 | 0.00 | 75 | 1017.1 |
| 20260505041008 | 58 | 242 | 0.0 | 0.9 | 0.00 | 0.00 | 0.00 | 74 | 1017.2 |
| 20260505040510 | 58 | 241 | 0.0 | 0.9 | 0.00 | 0.00 | 0.00 | 74 | 1017.1 |
| 20260505040029 | 58 | 241 | 0.0 | 0.9 | 0.00 | 0.00 | 0.00 | 74 | 1017.1 |
| 20260505035511 | 58 | 241 | 0.0 | 0.9 | 0.00 | 0.00 | 0.00 | 73 | 1017.1 |
| 20260505035008 | 59 | 241 | 0.0 | 0.9 | 0.00 | 0.00 | 0.00 | 73 | 1017.2 |
| 20260505034513 | 59 | 241 | 0.0 | 0.9 | 0.00 | 0.00 | 0.00 | 73 | 1017.2 |
| 20260505034004 | 59 | 240 | 0.0 | 0.9 | 0.00 | 0.00 | 0.00 | 72 | 1017.2 |
| 20260505033506 | 59 | 240 | 0.0 | 0.9 | 0.00 | 0.00 | 0.00 | 72 | 1017.3 |
| 20260505033010 | 59 | 244 | 0.0 | 0.9 | 0.00 | 0.00 | 0.00 | 71 | 1017.3 |
| 20260505032507 | 60 | 236 | 0.0 | 0.9 | 0.00 | 0.00 | 0.00 | 70 | 1017.3 |
| 20260505032009 | 60 | 236 | 0.0 | 0.9 | 0.00 | 0.00 | 0.00 | 69 | 1017.3 |
| 20260505031533 | 61 | 236 | 0.0 | 1.7 | 0.00 | 0.00 | 0.00 | 68 | 1017.2 |
| 20260505031005 | 61 | 236 | 0.0 | 1.7 | 0.00 | 0.00 | 0.00 | 68 | 1017.3 |
| 20260505030507 | 61 | 246 | 0.0 | 3.5 | 0.00 | 0.00 | 0.00 | 68 | 1017.3 |
| 20260505030022 | 61 | 245 | 0.0 | 3.5 | 0.00 | 0.00 | 0.00 | 67 | 1017.3 |
| 20260505025507 | 62 | 212 | 0.0 | 1.7 | 0.00 | 0.00 | 0.00 | 67 | 1017.3 |
| 20260505025014 | 62 | 211 | 0.0 | 1.7 | 0.00 | 0.00 | 0.00 | 66 | 1017.3 |
| 20260505024520 | 62 | 251 | 0.0 | 1.7 | 0.00 | 0.00 | 0.00 | 66 | 1017.2 |
| 20260505024007 | 63 | 292 | 0.0 | 1.7 | 0.00 | 0.00 | 0.00 | 65 | 1017.2 |
| 20260505023508 | 63 | 285 | 0.0 | 1.7 | 0.00 | 0.00 | 0.00 | 65 | 1017.2 |
| 20260505023022 | 63 | 243 | 0.9 | 2.6 | 0.00 | 0.00 | 0.00 | 64 | 1017.2 |
| 20260505022506 | 63 | 282 | 0.0 | 3.5 | 0.00 | 0.00 | 0.00 | 64 | 1017.2 |
| 20260505022006 | 63 | 7 | 0.9 | 4.3 | 0.00 | 0.00 | 0.00 | 65 | 1017.1 |
| 20260505021513 | 63 | 233 | 0.0 | 4.3 | 0.00 | 0.00 | 0.00 | 64 | 1017.0 |
| 20260505021010 | 63 | 319 | 0.0 | 1.7 | 0.00 | 0.00 | 0.00 | 64 | 1017.0 |
| 20260505020507 | 64 | 11 | 0.0 | 1.7 | 0.00 | 0.00 | 0.00 | 64 | 1017.0 |
| 20260505020018 | 64 | 229 | 0.0 | 1.7 | 0.00 | 0.00 | 0.00 | 63 | 1017.0 |
| 20260505015510 | 64 | 231 | 0.0 | 0.9 | 0.00 | 0.00 | 0.00 | 62 | 1016.8 |
| 20260505015008 | 64 | 359 | 0.0 | 2.6 | 0.00 | 0.00 | 0.00 | 62 | 1016.7 |
| 20260505014532 | 64 | 16 | 0.0 | 2.6 | 0.00 | 0.00 | 0.00 | 61 | 1016.7 |
| 20260505014009 | 65 | 261 | 0.0 | 2.6 | 0.00 | 0.00 | 0.00 | 61 | 1016.7 |
| 20260505013511 | 65 | 260 | 0.0 | 2.6 | 0.00 | 0.00 | 0.00 | 61 | 1016.6 |
| 20260505013023 | 65 | 161 | 0.9 | 2.6 | 0.00 | 0.00 | 0.00 | 61 | 1016.6 |
| 20260505012509 | 65 | 8 | 0.0 | 2.6 | 0.00 | 0.00 | 0.00 | 60 | 1016.5 |
| 20260505012008 | 66 | 14 | 0.0 | 3.5 | 0.00 | 0.00 | 0.00 | 60 | 1016.5 |
| 20260505011525 | 66 | 52 | 0.9 | 4.3 | 0.00 | 0.00 | 0.00 | 59 | 1016.4 |
| 20260505011010 | 66 | 196 | 1.7 | 4.3 | 0.00 | 0.00 | 0.00 | 59 | 1016.3 |
| 20260505010507 | 66 | 283 | 0.9 | 2.6 | 0.00 | 0.00 | 0.00 | 59 | 1016.2 |
| 20260505010021 | 66 | 101 | 0.9 | 2.6 | 0.00 | 0.00 | 0.00 | 59 | 1016.2 |
| 20260505005507 | 66 | 122 | 0.0 | 3.5 | 0.00 | 0.00 | 0.00 | 58 | 1016.1 |
| 20260505005008 | 66 | 139 | 0.9 | 3.5 | 0.00 | 0.00 | 0.00 | 58 | 1016.0 |
| 20260505004527 | 67 | 230 | 0.9 | 3.5 | 0.00 | 0.00 | 0.00 | 56 | 1015.9 |
| 20260505004008 | 67 | 286 | 0.0 | 2.6 | 0.00 | 0.00 | 0.00 | 55 | 1015.8 |
| 20260505003511 | 66 | 16 | 0.9 | 5.2 | 0.00 | 0.00 | 0.00 | 55 | 1015.7 |
| 20260505003024 | 66 | 338 | 0.9 | 5.2 | 0.00 | 0.00 | 0.00 | 55 | 1015.7 |
| 20260505002511 | 64 | 9 | 0.0 | 1.7 | 0.00 | 0.00 | 0.00 | 58 | 1015.6 |
| 20260505002009 | 65 | 326 | 0.0 | 0.0 | 0.00 | 0.00 | 0.00 | 55 | 1015.4 |
| 20260505001524 | 66 | 326 | 0.0 | 0.0 | 0.00 | 0.00 | 0.00 | 55 | 1015.4 |
| 20260505001008 | 67 | 326 | 0.0 | 0.0 | 0.00 | 0.00 | 0.00 | 53 | 1015.3 |
| 20260505000514 | 68 | 326 | 0.0 | 0.0 | 0.00 | 0.00 | 0.00 | 51 | 1015.4 |
| 20260505000030 | 69 | 326 | 0.0 | 0.0 | 0.00 | 0.00 | 0.00 | 47 | 1015.3 |
| 20260504235510 | 70 | 326 | 0.0 | 0.0 | 0.00 | 0.00 | 0.00 | 45 | 1015.2 |
| 20260504235013 | 71 | 326 | 0.0 | 0.9 | 0.00 | 0.00 | 0.00 | 45 | 1015.3 |
| 20260504234518 | 72 | 326 | 0.0 | 0.9 | 0.00 | 0.00 | 0.00 | 42 | 1015.2 |
| 20260504234008 | 72 | 326 | 0.0 | 1.7 | 0.00 | 0.00 | 0.00 | 41 | 1015.2 |
| 20260504233511 | 73 | 101 | 0.0 | 1.7 | 0.00 | 0.00 | 0.00 | 42 | 1015.2 |
| 20260504233023 | 73 | 115 | 0.0 | 2.6 | 0.00 | 0.00 | 0.00 | 40 | 1015.2 |
| 20260504232508 | 73 | 259 | 0.0 | 2.6 | 0.00 | 0.00 | 0.00 | 40 | 1015.1 |
| 20260504232007 | 74 | 238 | 0.0 | 2.6 | 0.00 | 0.00 | 0.00 | 41 | 1015.1 |
| 20260504231523 | 74 | 262 | 0.0 | 4.3 | 0.00 | 0.00 | 0.00 | 40 | 1015.2 |
| 20260504231012 | 75 | 282 | 0.9 | 4.3 | 0.00 | 0.00 | 0.00 | 38 | 1015.2 |
| 20260504230509 | 75 | 264 | 0.0 | 4.3 | 0.00 | 0.00 | 0.00 | 38 | 1015.2 |
| 20260504230026 | 76 | 73 | 1.7 | 4.3 | 0.00 | 0.00 | 0.00 | 36 | 1015.2 |
| 20260504225509 | 77 | 284 | 0.9 | 3.5 | 0.00 | 0.00 | 0.00 | 35 | 1015.1 |
| 20260504225009 | 77 | 322 | 0.0 | 2.6 | 0.00 | 0.00 | 0.00 | 37 | 1015.1 |
| 20260504224526 | 77 | 65 | 0.9 | 4.3 | 0.00 | 0.00 | 0.00 | 34 | 1015.1 |
| 20260504224008 | 78 | 295 | 1.7 | 4.3 | 0.00 | 0.00 | 0.00 | 33 | 1015.1 |
| 20260504223508 | 78 | 210 | 1.7 | 6.1 | 0.00 | 0.00 | 0.00 | 33 | 1015.2 |
| 20260504223039 | 78 | 157 | 2.6 | 7.0 | 0.00 | 0.00 | 0.00 | 33 | 1015.2 |
| 20260504222508 | 78 | 232 | 2.6 | 7.0 | 0.00 | 0.00 | 0.00 | 32 | 1015.2 |
| 20260504222006 | 79 | 287 | 0.9 | 4.3 | 0.00 | 0.00 | 0.00 | 33 | 1015.2 |
| 20260504221527 | 79 | 110 | 0.9 | 5.2 | 0.00 | 0.00 | 0.00 | 34 | 1015.2 |
| 20260504221008 | 79 | 332 | 0.9 | 5.2 | 0.00 | 0.00 | 0.00 | 33 | 1015.2 |
| 20260504220509 | 79 | 155 | 1.7 | 4.3 | 0.00 | 0.00 | 0.00 | 32 | 1015.2 |
| 20260504220028 | 80 | 311 | 0.9 | 5.2 | 0.00 | 0.00 | 0.00 | 32 | 1015.2 |
| 20260504215508 | 80 | 288 | 0.9 | 5.2 | 0.00 | 0.00 | 0.00 | 33 | 1015.2 |
| 20260504215009 | 80 | 337 | 0.9 | 3.5 | 0.00 | 0.00 | 0.00 | 34 | 1015.1 |
| 20260504214530 | 80 | 105 | 1.7 | 6.1 | 0.00 | 0.00 | 0.00 | 32 | 1015.0 |
| 20260504214009 | 80 | 307 | 0.9 | 6.1 | 0.00 | 0.00 | 0.00 | 31 | 1015.2 |
| 20260504213512 | 80 | 224 | 0.0 | 4.3 | 0.00 | 0.00 | 0.00 | 31 | 1015.1 |
| 20260504213040 | 80 | 286 | 1.7 | 6.1 | 0.00 | 0.00 | 0.00 | 32 | 1015.1 |
| 20260504212511 | 80 | 69 | 0.9 | 6.1 | 0.00 | 0.00 | 0.00 | 31 | 1015.1 |
| 20260504212008 | 80 | 205 | 1.7 | 3.5 | 0.00 | 0.00 | 0.00 | 32 | 1015.1 |
| 20260504211532 | 80 | 336 | 0.9 | 3.5 | 0.00 | 0.00 | 0.00 | 32 | 1015.1 |
| 20260504211009 | 80 | 61 | 0.9 | 3.5 | 0.00 | 0.00 | 0.00 | 31 | 1015.2 |
| 20260504210507 | 80 | 32 | 0.9 | 2.6 | 0.00 | 0.00 | 0.00 | 31 | 1015.1 |
| 20260504210023 | 80 | 279 | 0.9 | 4.3 | 0.00 | 0.00 | 0.00 | 33 | 1015.1 |
| 20260504205510 | 80 | 130 | 1.7 | 7.0 | 0.00 | 0.00 | 0.00 | 31 | 1015.2 |
| 20260504205008 | 80 | 293 | 1.7 | 7.0 | 0.00 | 0.00 | 0.00 | 32 | 1015.2 |
| 20260504204537 | 80 | 270 | 1.7 | 5.2 | 0.00 | 0.00 | 0.00 | 32 | 1015.1 |
| 20260504204014 | 80 | 293 | 1.7 | 5.2 | 0.00 | 0.00 | 0.00 | 31 | 1015.1 |
| 20260504203506 | 80 | 71 | 1.7 | 5.2 | 0.00 | 0.00 | 0.00 | 32 | 1015.2 |
| 20260504203017 | 81 | 270 | 0.9 | 5.2 | 0.00 | 0.00 | 0.00 | 32 | 1015.2 |
| 20260504202506 | 81 | 78 | 1.7 | 5.2 | 0.00 | 0.00 | 0.00 | 33 | 1015.2 |
| 20260504202006 | 81 | 67 | 1.7 | 5.2 | 0.00 | 0.00 | 0.00 | 31 | 1015.3 |
| 20260504201518 | 81 | 309 | 0.9 | 2.6 | 0.00 | 0.00 | 0.00 | 31 | 1015.3 |
| 20260504201006 | 81 | 336 | 0.9 | 3.5 | 0.00 | 0.00 | 0.00 | 31 | 1015.3 |
| 20260504200507 | 81 | 184 | 0.9 | 3.5 | 0.00 | 0.00 | 0.00 | 30 | 1015.3 |
| 20260504200023 | 81 | 226 | 1.7 | 2.6 | 0.00 | 0.00 | 0.00 | 33 | 1015.4 |
| 20260504195509 | 80 | 281 | 0.9 | 5.2 | 0.00 | 0.00 | 0.00 | 30 | 1015.5 |
| 20260504195012 | 80 | 282 | 1.7 | 5.2 | 0.00 | 0.00 | 0.00 | 31 | 1015.6 |
| 20260504194525 | 80 | 255 | 0.9 | 3.5 | 0.00 | 0.00 | 0.00 | 32 | 1015.7 |
| 20260504194009 | 80 | 284 | 1.7 | 7.0 | 0.00 | 0.00 | 0.00 | 30 | 1015.7 |
| 20260504193509 | 80 | 310 | 2.6 | 7.0 | 0.00 | 0.00 | 0.00 | 29 | 1015.9 |
| 20260504193008 | 80 | 276 | 1.7 | 3.5 | 0.00 | 0.00 | 0.00 | 32 | 1015.9 |
| 20260504192505 | 80 | 65 | 0.9 | 4.3 | 0.00 | 0.00 | 0.00 | 32 | 1015.9 |
| 20260504192007 | 81 | 96 | 1.7 | 4.3 | 0.00 | 0.00 | 0.00 | 30 | 1016.1 |
| 20260504191514 | 81 | 320 | 0.9 | 7.0 | 0.00 | 0.00 | 0.00 | 32 | 1016.1 |
| 20260504191007 | 80 | 22 | 1.7 | 7.0 | 0.00 | 0.00 | 0.00 | 32 | 1016.2 |
| 20260504190507 | 81 | 281 | 1.7 | 7.0 | 0.00 | 0.00 | 0.00 | 31 | 1016.3 |
| 20260504190016 | 81 | 195 | 0.9 | 5.2 | 0.00 | 0.00 | 0.00 | 31 | 1016.4 |
| 20260504185506 | 81 | 280 | 2.6 | 5.2 | 0.00 | 0.00 | 0.00 | 29 | 1016.5 |
| 20260504185009 | 81 | 306 | 0.0 | 2.6 | 0.00 | 0.00 | 0.00 | 30 | 1016.5 |
| 20260504184524 | 81 | 306 | 0.9 | 7.0 | 0.00 | 0.00 | 0.00 | 28 | 1016.6 |
| 20260504184009 | 81 | 318 | 0.0 | 7.0 | 0.00 | 0.00 | 0.00 | 31 | 1016.7 |
| 20260504183510 | 81 | 291 | 0.9 | 4.3 | 0.00 | 0.00 | 0.00 | 31 | 1016.7 |
| 20260504183026 | 81 | 304 | 0.9 | 4.3 | 0.00 | 0.00 | 0.00 | 28 | 1016.8 |
| 20260504182511 | 81 | 139 | 0.9 | 4.3 | 0.00 | 0.00 | 0.00 | 30 | 1016.8 |
| 20260504182011 | 81 | 30 | 0.9 | 2.6 | 0.00 | 0.00 | 0.00 | 31 | 1017.0 |
| 20260504181531 | 81 | 195 | 0.9 | 3.5 | 0.00 | 0.00 | 0.00 | 30 | 1016.9 |
| 20260504181010 | 81 | 272 | 1.7 | 3.5 | 0.00 | 0.00 | 0.00 | 29 | 1017.0 |
| 20260504180507 | 81 | 335 | 0.0 | 2.6 | 0.00 | 0.00 | 0.00 | 30 | 1017.0 |
| 20260504180018 | 80 | 226 | 0.0 | 2.6 | 0.00 | 0.00 | 0.00 | 32 | 1017.0 |
| 20260504175506 | 79 | 211 | 0.9 | 2.6 | 0.00 | 0.00 | 0.00 | 35 | 1017.0 |
| 20260504175007 | 79 | 200 | 1.7 | 4.3 | 0.00 | 0.00 | 0.00 | 34 | 1017.1 |
| 20260504174520 | 78 | 316 | 0.9 | 4.3 | 0.00 | 0.00 | 0.00 | 34 | 1017.0 |
| 20260504174007 | 79 | 345 | 2.6 | 4.3 | 0.00 | 0.00 | 0.00 | 33 | 1017.0 |
| 20260504173508 | 78 | 277 | 0.9 | 4.3 | 0.00 | 0.00 | 0.00 | 34 | 1017.1 |
| 20260504173024 | 78 | 37 | 0.9 | 6.1 | 0.00 | 0.00 | 0.00 | 33 | 1017.2 |
| 20260504172509 | 78 | 295 | 0.0 | 6.1 | 0.00 | 0.00 | 0.00 | 38 | 1017.3 |
| 20260504172003 | 78 | 274 | 0.9 | 3.5 | 0.00 | 0.00 | 0.00 | 36 | 1017.3 |
| 20260504171510 | 78 | 285 | 1.7 | 3.5 | 0.00 | 0.00 | 0.00 | 36 | 1017.3 |
| 20260504171003 | 78 | 336 | 0.0 | 2.6 | 0.00 | 0.00 | 0.00 | 37 | 1017.4 |
| 20260504170507 | 77 | 291 | 0.0 | 3.5 | 0.00 | 0.00 | 0.00 | 40 | 1017.5 |
| 20260504151008 | 74 | 293 | 0.0 | 3.5 | 0.00 | 0.00 | 0.00 | 44 | 1018.5 |
| 20260504150511 | 73 | 291 | 0.9 | 3.5 | 0.00 | 0.00 | 0.00 | 42 | 1018.5 |
| 20260504141008 | 68 | 283 | 0.9 | 2.6 | 0.00 | 0.00 | 0.00 | 56 | 1018.5 |
| 20260504140507 | 68 | 291 | 0.9 | 2.6 | 0.00 | 0.00 | 0.00 | 57 | 1018.5 |